Terminal Aerodrome Forecast
Issued by NWS Charleston, WV

Current Version | Previous Version | Text Only | Print | Product List | Glossary Off
Versions: 1 2 3 4 5 6 7 8 9 10 11 12 13 14 15 16 17 18 19 20 21 22 23 24 25 26

000
FTUS41 KRLX 211128
TAFCRW
TAF
KCRW 211128Z 2112/2212 26004KT 6SM RA BR SCT005 BKN010 OVC025
      TEMPO 2112/2115 BKN008
     FM211500 26006KT P6SM -SHRA SCT008 OVC015
     FM211700 30008KT P6SM BKN025
     FM212000 28009KT P6SM BKN050
     FM220600 VRB03KT P6SM FEW250
     FM220800 VRB03KT 5SM BR FEW090=

USA.gov is the U.S. government's official web portal to all federal, state and local government web resources and services.